Location: Santa Cristina
(46.5667°N, 11.7167°E)
Time: 02:59:25
(UTC+00:00)

Cosmos 2112 Rocket - Pass Details

Date: 21 April 2021
Orbit: 755 x 787 km, 74.1° (Epoch: 10 May)

Event Time Altitude Azimuth Distance (km) Brightness Sun altitude
Rises 01:44:49 0° 335° (NNW) 3,267 7.6 -22.3°
Reaches altitude 10° 01:47:13 10° 333° (NNW) 2,340 6.7 -22.0°
Maximum altitude 01:52:28 64° 253° (WSW) 864 4.0 -21.4°
Enters shadow 01:54:18 40° 188° (S) 1,150 4.5 -21.2°
